This is the latest recevied weather packets stored in our database for station/object KC9DRE. If no packets are shown the sender has not sent any weather packets the latest 10 day(s).
| Time | Temp. | Humidity | Pressure | Rain* | Wind** | Luminosity | Snow |
|---|---|---|---|---|---|---|---|
| 1778199721 | 12.78° C | 59% | 1014.9 hPa | 0 mm | - | 13 W/m² | - |
| 1778199415 | 13.33° C | 55% | 1015 hPa | 0 mm | - | 16 W/m² | - |
| 1778199112 | 13.89° C | 55% | 1014.8 hPa | 0 mm | - | 19 W/m² | - |
| 1778198808 | 14.44° C | 52% | 1014.9 hPa | 0 mm | - | 22 W/m² | - |
| 1778198505 | 15° C | 48% | 1014.7 hPa | 0 mm | - | 25 W/m² | - |
| 1778198202 | 15° C | 46% | 1014.8 hPa | 0 mm | - | 28 W/m² | - |
| 1778197899 | 15.56° C | 44% | 1014.6 hPa | 0 mm | - | 31 W/m² | - |
| 1778197596 | 16.11° C | 42% | 1014.8 hPa | 0 mm | - | 32 W/m² | - |
| 1778197292 | 16.67° C | 40% | 1014.5 hPa | 0 mm | - | 38 W/m² | - |
| 1778196989 | 16.67° C | 41% | 1014.5 hPa | 0 mm | - | 57 W/m² | - |
| 1778196688 | 17.22° C | 39% | 1014.6 hPa | 0 mm | - | 67 W/m² | - |
| 1778196384 | 17.22° C | 39% | 1014.5 hPa | 0 mm | - | 69 W/m² | - |
| 1778196081 | 17.78° C | 40% | 1014.6 hPa | 0 mm | - | 65 W/m² | - |
| 1778195777 | 17.78° C | 36% | 1014.5 hPa | 0 mm | - | 102 W/m² | - |
| 1778195475 | 18.33° C | 34% | 1014.8 hPa | 0 mm | - | 112 W/m² | - |
| 1778195171 | 18.33° C | 36% | 1014.6 hPa | 0 mm | - | 125 W/m² | - |
| 1778194868 | 17.78° C | 37% | 1014.8 hPa | 0 mm | - | 136 W/m² | - |
| 1778194563 | 17.22° C | 38% | 1014.6 hPa | 0 mm | - | 150 W/m² | - |
| 1778194260 | 16.67° C | 37% | 1014.6 hPa | 0 mm | - | 166 W/m² | - |
| 1778193955 | 17.22° C | 34% | 1014.8 hPa | 0 mm | - | 180 W/m² | - |
| 1778193652 | 17.78° C | 33% | 1014.6 hPa | 0 mm | - | 195 W/m² | - |
| 1778193348 | 17.78° C | 33% | 1014.7 hPa | 0 mm | - | 212 W/m² | - |
| 1778193045 | 18.33° C | 36% | 1015 hPa | 0 mm | - | 226 W/m² | - |
| 1778192742 | 17.78° C | 37% | 1014.7 hPa | 0 mm | - | 243 W/m² | - |
| 1778192439 | 17.22° C | 34% | 1014.9 hPa | 0 mm | - | 258 W/m² | - |
* Rain latest hour (hover to see other rain measurements)
** Current wind speed in m/s (hover to see current wind gust speed)